SL-16 DEB, 22571

Orbit data source: Space-Track

SL-16 DEB, 22571 is space debris in LEO originally from a launch on Fri, 25 Dec 1992 UTC launched from the Tyuratam Missile And Space Complex (TTMTR). Debris objects in space refer to the collection of defunct objects orbiting the Earth. Examples of debris include non-operational satellites, rocket bodies, and fragments generated from explosions, collisions, or faulty payload assembly.

Loading next visibility...
Identifier
22571, 1992-093HT
Orbit
LEO
Country
Flag of CISCIS
Related business
Manufacturer
Unknown
Mission
Spacecraft
Bus & Motor
Unknown
Mass
Unknown
Launch date (UTC)
1992-12-25 (33 years ago)
Launch vehicle
Unknown
Launch site
Tyuratam Missile And Space Complex (TTMTR)
Object type
Payload
Rocket body
Debris
Shape & HBR
Unknown shape, 0.1 m
Radar Cross Section
Small (<0.1 m²)

Expand to show TLE details & history
Last TLE update: 1 day ago

TLE from 1 day ago
0 SL-16 DEB
1 22571U 92093HT  25305.49854029  .00043516  00000-0  62281-2 0  9996
2 22571  71.3339 117.9083 0058452 239.6405 119.8965 14.75195575671470
Epoch: 2025-11-01T11:57Z
TLE epoch observation values (Epoch: 2025-11-01T11:57:53.881Z)
Latitude
0.00003°
Longitude
-102.59395°
Altitude
667.664 km
Speed
7.512 km/s
True Right ascension
07h 51m 37s
True Declination
0° 00' 00"
Sunlit
Object was in daylight at epoch
Visualization orbit readout
Latitude
Unknown
Longitude
Unknown
Altitude
Unknown
Speed
Unknown
Apparent Right ascension
Unknown
Apparent Declination
Unknown
Sunlit
N/A
Visualization observer readout
Local Sidereal Time
12:19:51
Azimuth
Unknown
Elevation
Unknown
Doppler factor
Unknown
Orbital elements
Apogee altitude
683.399 km
Perigee altitude
601.327 km
Semi-major axis
7,020.5 km
Eccentricity
0.00585
Inclination
71.3339°
RAAN
117.9083°
Arg. of periapsis
239.6405°
True anomaly
120.47506°
Mean anomaly
119.8965°
Eccentric anomaly
120.18599°
Mean motion
3.6897 °/min
Orbital period
97.57 mins
BSTAR
0.0062281
Loading maneuver chart data...
Computing Atmospheric mass density...
Loading historical data...
Loading historical data...
Loading historical data...
Loading historical data...
Loading historical data...
Loading historical data...
Loading historical data...

Documentation

Showing up to 5 results
|